TimeAKDT,TemperatureF,Dew PointF,Humidity,Sea Level PressureIn,VisibilityMPH,Wind Direction,Wind SpeedMPH,Gust SpeedMPH,PrecipitationIn,Events,Conditions,WindDirDegrees,DateUTC
12:16 AM,51.8,51.8,100,29.89,1.5,SSE,15.0,19.6,N/A,,Overcast,150,2012-10-07 08:16:00
12:36 AM,51.8,50.0,94,29.89,3.0,SSE,16.1,20.7,N/A,,Overcast,150,2012-10-07 08:36:00
12:56 AM,51.8,51.8,100,29.89,7.0,SSE,13.8,19.6,N/A,,Overcast,150,2012-10-07 08:56:00
1:16 AM,51.8,50.0,94,29.89,3.0,SSE,11.5,-,N/A,,Overcast,160,2012-10-07 09:16:00
1:36 AM,51.8,50.0,94,29.89,4.0,SSE,10.4,17.3,N/A,,Overcast,150,2012-10-07 09:36:00
1:56 AM,51.8,50.0,94,29.90,5.0,SSE,13.8,-,N/A,,Overcast,160,2012-10-07 09:56:00
2:16 AM,51.8,51.8,100,29.90,5.0,SSE,10.4,-,N/A,,Overcast,150,2012-10-07 10:16:00
2:36 AM,50.0,50.0,100,29.90,3.0,SSE,12.7,16.1,N/A,,Overcast,160,2012-10-07 10:36:00
2:56 AM,50.0,50.0,100,29.90,4.0,SSE,16.1,-,N/A,,Overcast,160,2012-10-07 10:56:00
3:16 AM,50.0,50.0,100,29.91,4.0,SSE,16.1,19.6,N/A,,Overcast,160,2012-10-07 11:16:00
3:36 AM,50.0,48.2,94,29.91,3.0,South,15.0,-,N/A,,Overcast,170,2012-10-07 11:36:00
3:56 AM,50.0,50.0,100,29.92,3.0,SSE,10.4,-,N/A,,Overcast,160,2012-10-07 11:56:00
4:16 AM,51.8,50.0,94,29.92,4.0,SSE,11.5,18.4,N/A,,Overcast,150,2012-10-07 12:16:00
4:36 AM,51.8,50.0,94,29.92,5.0,SSE,11.5,19.6,N/A,,Overcast,150,2012-10-07 12:36:00
4:56 AM,50.0,50.0,100,29.92,4.0,South,10.4,-,N/A,,Overcast,190,2012-10-07 12:56:00
5:16 AM,50.0,50.0,100,29.92,3.0,South,12.7,-,N/A,,Overcast,180,2012-10-07 13:16:00
5:36 AM,50.0,50.0,100,29.92,2.5,South,11.5,-,N/A,,Overcast,180,2012-10-07 13:36:00
5:56 AM,51.8,51.8,100,29.92,2.5,South,12.7,17.3,N/A,,Overcast,170,2012-10-07 13:56:00
6:16 AM,51.8,51.8,100,29.93,5.0,SSE,9.2,-,N/A,,Overcast,160,2012-10-07 14:16:00
6:36 AM,51.8,50.0,94,29.93,7.0,SSE,16.1,23.0,N/A,,Overcast,150,2012-10-07 14:36:00
6:56 AM,51.8,51.8,100,29.93,7.0,SSE,15.0,20.7,N/A,,Overcast,150,2012-10-07 14:56:00
7:16 AM,51.8,51.8,100,29.93,7.0,SSE,17.3,23.0,N/A,,Overcast,150,2012-10-07 15:16:00
7:36 AM,51.8,51.8,100,29.93,7.0,SSE,15.0,21.9,N/A,,Overcast,150,2012-10-07 15:36:00
7:56 AM,50.0,48.2,94,29.93,7.0,SE,12.7,20.7,N/A,,Overcast,140,2012-10-07 15:56:00
8:16 AM,51.8,51.8,100,29.94,7.0,SSE,13.8,-,N/A,,Overcast,150,2012-10-07 16:16:00
8:36 AM,50.0,50.0,100,29.95,7.0,SSE,12.7,20.7,N/A,,Overcast,150,2012-10-07 16:36:00
8:56 AM,50.0,50.0,100,29.95,5.0,SSE,15.0,23.0,N/A,,Overcast,150,2012-10-07 16:56:00
9:36 AM,50.0,50.0,100,29.96,5.0,SSE,16.1,21.9,N/A,,Overcast,160,2012-10-07 17:36:00
9:56 AM,50.0,50.0,100,29.97,5.0,SSE,13.8,19.6,N/A,,Overcast,150,2012-10-07 17:56:00
10:16 AM,50.0,50.0,100,29.98,6.0,SSE,15.0,-,N/A,,Overcast,150,2012-10-07 18:16:00
10:36 AM,51.8,51.8,100,29.98,6.0,SSE,15.0,19.6,N/A,,Overcast,160,2012-10-07 18:36:00
10:56 AM,51.8,51.8,100,29.99,5.0,SSE,16.1,21.9,N/A,,Overcast,150,2012-10-07 18:56:00
11:16 AM,50.0,48.2,94,29.99,5.0,SSE,16.1,21.9,N/A,,Overcast,160,2012-10-07 19:16:00
11:36 AM,50.0,48.2,94,30.00,5.0,SSE,13.8,-,N/A,,Overcast,150,2012-10-07 19:36:00
11:56 AM,50.0,48.2,94,30.01,9.0,SSE,11.5,17.3,N/A,,Overcast,150,2012-10-07 19:56:00
12:16 PM,51.8,51.8,100,30.02,9.0,SSE,9.2,-,N/A,,Overcast,150,2012-10-07 20:16:00
12:36 PM,51.8,50.0,94,30.02,10.0,SSE,8.1,-,N/A,,Overcast,150,2012-10-07 20:36:00
12:56 PM,51.8,51.8,100,30.02,10.0,SSE,8.1,-,N/A,,Overcast,150,2012-10-07 20:56:00
1:16 PM,51.8,51.8,100,30.03,10.0,SE,5.8,-,N/A,,Overcast,140,2012-10-07 21:16:00
1:36 PM,51.8,51.8,100,30.03,10.0,SE,9.2,-,N/A,,Overcast,140,2012-10-07 21:36:00
1:56 PM,51.8,51.8,100,30.03,7.0,SSE,8.1,-,N/A,,Overcast,150,2012-10-07 21:56:00
2:16 PM,51.8,51.8,100,30.04,5.0,SE,9.2,16.1,N/A,,Overcast,140,2012-10-07 22:16:00
2:36 PM,50.0,50.0,100,30.05,5.0,SSE,5.8,-,N/A,,Overcast,150,2012-10-07 22:36:00
2:56 PM,50.0,50.0,100,30.05,3.0,SE,8.1,-,N/A,,Overcast,140,2012-10-07 22:56:00
3:16 PM,50.0,50.0,100,30.05,3.0,SSE,10.4,19.6,N/A,,Overcast,150,2012-10-07 23:16:00
3:36 PM,50.0,50.0,100,30.05,2.5,SSE,12.7,18.4,N/A,,Overcast,150,2012-10-07 23:36:00
3:56 PM,50.0,50.0,100,30.05,2.0,SE,8.1,17.3,N/A,,Overcast,140,2012-10-07 23:56:00
4:16 PM,50.0,50.0,100,30.05,2.0,SSE,8.1,-,N/A,,Overcast,150,2012-10-08 00:16:00
4:36 PM,50.0,50.0,100,30.05,2.0,SSE,8.1,-,N/A,,Overcast,150,2012-10-08 00:36:00
4:56 PM,50.0,50.0,100,30.05,1.5,SE,5.8,-,N/A,,Overcast,140,2012-10-08 00:56:00
5:16 PM,50.0,50.0,100,30.05,1.5,SSE,3.5,-,N/A,,Overcast,150,2012-10-08 01:16:00
5:36 PM,50.0,50.0,100,30.04,1.5,SSE,8.1,-,N/A,,Overcast,150,2012-10-08 01:36:00
5:56 PM,50.0,50.0,100,30.04,2.0,SE,5.8,-,N/A,,Overcast,140,2012-10-08 01:56:00
6:16 PM,50.0,50.0,100,30.05,2.0,Calm,Calm,-,N/A,,Overcast,0,2012-10-08 02:16:00
6:36 PM,50.0,50.0,100,30.05,2.0,Calm,Calm,-,N/A,,Overcast,0,2012-10-08 02:36:00
6:56 PM,50.0,50.0,100,30.06,2.0,East,4.6,-,N/A,,Overcast,90,2012-10-08 02:56:00
7:16 PM,50.0,50.0,100,30.06,10.0,SE,8.1,-,N/A,,Overcast,140,2012-10-08 03:16:00
7:36 PM,50.0,50.0,100,30.07,10.0,SE,6.9,-,N/A,,Overcast,140,2012-10-08 03:36:00
7:56 PM,50.0,50.0,100,30.08,10.0,East,5.8,-,N/A,,Overcast,80,2012-10-08 03:56:00
8:16 PM,50.0,50.0,100,30.09,10.0,East,4.6,-,N/A,,Overcast,100,2012-10-08 04:16:00
8:36 PM,50.0,50.0,100,30.09,10.0,SE,3.5,-,N/A,,Overcast,140,2012-10-08 04:36:00
8:56 PM,50.0,50.0,100,30.09,10.0,SSE,8.1,-,N/A,,Overcast,150,2012-10-08 04:56:00
9:16 PM,50.0,50.0,100,30.10,10.0,East,4.6,-,N/A,,Overcast,90,2012-10-08 05:16:00
9:36 PM,50.0,50.0,100,30.10,10.0,ENE,3.5,-,N/A,,Overcast,70,2012-10-08 05:36:00
9:56 PM,50.0,50.0,100,30.11,10.0,SE,5.8,-,N/A,,Overcast,140,2012-10-08 05:56:00
10:16 PM,48.2,48.2,100,30.11,8.0,SE,8.1,-,N/A,,Overcast,140,2012-10-08 06:16:00
10:36 PM,48.2,48.2,100,30.11,7.0,Calm,Calm,-,N/A,,Overcast,0,2012-10-08 06:36:00
10:56 PM,48.2,48.2,100,30.11,10.0,ENE,3.5,-,N/A,,Overcast,70,2012-10-08 06:56:00
11:16 PM,48.2,48.2,100,30.11,5.0,SE,5.8,-,N/A,,Overcast,140,2012-10-08 07:16:00
11:36 PM,48.2,48.2,100,30.11,7.0,Calm,Calm,-,N/A,,Overcast,0,2012-10-08 07:36:00
11:56 PM,48.2,48.2,100,30.11,7.0,ESE,4.6,-,N/A,,Overcast,110,2012-10-08 07:56:00